STARLINK-5373, 55490

Orbit data source: Space-Track

STARLINK-5373, 55490 is a payload satellite owned by SpaceX/Seattle (US) in LEO that was launched on Thu, 02 Feb 2023 UTC via an FALCON 9 launch vehicle from the Air Force Eastern Test Range (AFETR). Payload-class satellites include a variety of spacecraft equipped with specific instruments for various scientific and technological missions. These include communications satellites like Starlink; space stations such as the ISS; scientific satellites like the Hubble; Earth observation satellites from companies like Planet Labs, Umbra, and HawkEye 360; GPS; miniature CubeSats for education and research; and military/defense satellites.

Loading next visibility...
Identifier
55490, 2023-015AT
Orbit
LEO
Country
Flag of USUS
Related business
Manufacturer
SpaceX/Seattle
Mission
Operational Commercial Communications
Bus & Motor
STARLINK, Unknown motor
Mass
305 kg wet, ~290 kg dry
Launch date (UTC)
2023-02-02 (3 years ago)
Launch vehicle
FALCON 9
Launch site
Air Force Eastern Test Range (AFETR)
Object type
Payload
Rocket body
Debris
Shape & HBR
Box + 1 Pan, 10.1 m
Radar Cross Section
13.562 m², Large (>1 m²)

Expand to show TLE details & history
Last TLE update: 6 hours ago

TLE from 6 hours ago
0 STARLINK-5373
1 55490U 23015AT  26132.86898889  .00000536  00000-0  28996-4 0  9994
2 55490  43.0020 337.0156 0000953 234.9951 125.0812 15.27575794180414
Epoch: 2026-05-12T20:51Z
TLE epoch observation values (Epoch: 2026-05-12T20:51:20.640Z)
Latitude
0.00005°
Longitude
153.54247°
Altitude
483.213 km
Speed
7.625 km/s
True Right ascension
22h 28m 03s
True Declination
0° 00' 00"
Sunlit
Object was in daylight at epoch
Visualization orbit readout
Latitude
Unknown
Longitude
Unknown
Altitude
Unknown
Speed
Unknown
Apparent Right ascension
Unknown
Apparent Declination
Unknown
Sunlit
N/A
Visualization observer readout
Local Sidereal Time
11:18:02
Azimuth
Unknown
Elevation
Unknown
Doppler factor
Unknown
Orbital elements
Apogee altitude
485.661 km
Perigee altitude
484.352 km
Semi-major axis
6,863.144 km
Eccentricity
0.0001
Inclination
43.002°
RAAN
337.0156°
Arg. of periapsis
234.9951°
True anomaly
125.09014°
Mean anomaly
125.0812°
Eccentric anomaly
125.08567°
Mean motion
3.81732 °/min
Orbital period
94.31 mins
BSTAR
0.000028996
Loading maneuver chart data...
Computing Atmospheric mass density...
Loading historical data...
Loading historical data...
Loading historical data...
Loading historical data...
Loading historical data...
Loading historical data...
Loading historical data...

Documentation

Showing up to 5 results
|